Regional Weather Roundup
Issued by NWS

Home | Current Version | Previous Version | Text Only | Print | Product List | Glossary Off
Versions: 1 2 3 4 5 6 7 8 9 10 11 12 13 14 15 16 17 18 19 20 21 22 23 24 25 26 27 28 29 30 31 32 33 34 35 36 37 38 39 40 41 42 43 44 45 46 47 48 49 50

000
ASUS43 KFSD 100202
RWRSD

WEATHER ROUNDUP FOR SOUTH DAKOTA
NATIONAL WEATHER SERVICE SIOUX FALLS SD
900 PM CDT WED JUL 09 2014

NOTE: "FAIR" INDICATES FEW OR NO CLOUDS BELOW 12,000 FEET WITH NO
SIGNIFICANT WEATHER AND/OR OBSTRUCTIONS TO VISIBILITY.


SDZ001>005-009-010-012>017-100300-
NORTHWEST AND NORTH CENTRAL SOUTH DAKOTA

CITY           SKY/WX    TMP DP  RH WIND       PRES   REMARKS
BUFFALO          N/A     73  56  54 SE14      29.88S
FAITH            N/A     72  54  53 SE9       29.95F
MOBRIDGE       CLEAR     71  61  70 E9        29.93S HAZE
$$

SDZ012>016-024>037-041>051-057-063-072>074-100300-
SOUTHWEST AND SOUTH CENTRAL SOUTH DAKOTA

CITY           SKY/WX    TMP DP  RH WIND       PRES   REMARKS
RAPID CTY ARPT CLEAR     71  56  58 E8        29.96F
PIERRE         CLEAR     73  57  57 S7        29.92S
CUSTER         CLEAR     64  55  72 E7        30.08F
ELLSWORTH AFB  CLEAR     72  58  62 SE12      29.97S
PHILIP         CLEAR     71  55  56 E7        29.94S
PINE RIDGE     CLEAR     71  61  70 E10       29.95R
WINNER         MOCLDY    68  57  68 SE9       29.96S
$$

SDZ004>011-016>023-039-040-100300-
NORTHEAST SOUTH DAKOTA

CITY           SKY/WX    TMP DP  RH WIND       PRES   REMARKS
ABERDEEN       CLEAR     69  58  67 E6        29.96F
WATERTOWN      CLEAR     69  53  56 NE6       29.99F
SISSETON         N/A     69  58  67 E5        29.97F
$$

SDZ017-020-022-023-036>040-048>070-100300-
SOUTHEAST SOUTH DAKOTA

CITY           SKY/WX    TMP DP  RH WIND       PRES   REMARKS
SIOUX FALLS    PTCLDY    72  60  66 E9        29.98R
HURON          CLEAR     73  58  59 E6        29.95S HAZE
CHAMBERLAIN    CLEAR     70  59  69 SE6       29.95S
MITCHELL       CLEAR     75  59  57 S7        29.96S
YANKTON        CLEAR     72  59  64 SW5       29.98S
$$

ABBREVIATIONS USED IN REMARKS
   TC - TEMPERATURE IN CELSIUS
  WCI - WIND CHILL INDEX
   HX - HEAT INDEX
  VSB - VISIBILITY




USA.gov is the U.S. government's official web portal to all federal, state and local government web resources and services.